Tracking 31027 objects as of 19-Jul-2025
HD Live streaming from Space Station
objects crossing your sky now

OBJECT S

Track OBJECT S now!
10-day predictions


NORAD ID: 62393
Int'l Code: 2024-247S
Perigee: 472.0 km
Apogee: 490.4 km
Inclination: 45.0 °
Period: 94.1 minutes
Semi major axis: 6852 km
RCS: Unknown
Launch date: December 21, 2024
Source: (TBD)
Launch site: AIR FORCE WESTERN TEST RANGE (AFWTR)
Your satellite tracking list
SL-8 R/B
Track 1 satellite(s)




NASA's NSSDC Master Catalog

Two Line Element Set (TLE):
1 62393U 24247S   25199.57648365  .00010968  00000-0  37254-3 0  9990
2 62393  44.9796 303.9388 0013390 296.5417  63.4093 15.30594792 32069
Source of the keplerian elements: AFSPC